Location: ??? ????
(38.0580°N, 23.1536°E)
Time: 14:43:26
(UTC+00:00)

Spot 4 Rocket - Pass Details

Date: 13 December 2025
Orbit: 769 x 773 km, 98.8° (Epoch: 17 January)

Event Time Altitude Azimuth Distance (km) Brightness Sun altitude
Rises 17:02:59 0° 167° (SSE) 3,227 7.2 -21.9°
Reaches altitude 10° 17:05:17 10° 168° (SSE) 2,305 6.5 -22.3°
Maximum altitude 17:10:22 82° 256° (WSW) 784 4.0 -23.3°
Drops below altitude 10° 17:15:30 10° 345° (NNW) 2,324 6.5 -24.3°
Sets 17:17:50 0° 346° (NNW) 3,255 7.3 -24.7°
